Weather History for Indianapolis, IN

Change the Weather History Date:

Sunday, February 10, 2013

  Actual Average (KEYE) Record (KEYE)
Temperature  
Mean Temperature 42 °F 31 °F  
Max Temperature 50 °F 38 °F 61 °F (2009)
Min Temperature 33 °F 23 °F -5 °F (2011)
Degree Days  
Heating Degree Days 24 34  
Month to date heating degree days 353  
Since 1 July heating degree days 3554  
Cooling Degree Days 0 0  
Month to date cooling degree days 0  
Year to date cooling degree days 0  
Moisture  
Dew Point 33 °F    
Average Humidity 70    
Maximum Humidity 86    
Minimum Humidity 57    
Precipitation  
Precipitation 0.06 in 0.07 in 0.24 in (2002)
Month to date precipitation 0.67  
Year to date precipitation 2.88  
Sea Level Pressure  
Sea Level Pressure 29.91 in    
Wind  
Wind Speed 11 mph (SSE)    
Max Wind Speed 26 mph    
Max Gust Speed 31 mph    
Visibility 10 miles    
Events Rain    
T = Trace of Precipitation, MM = Missing Value Source: NWS Daily Summary

Daily Weather History Graph

Daily Weather History Graph

Search for Another Location

Airport:

Trip Planner

Search our weather history database for the weather conditions in past years. The results will help you decide how hot, cold, wet, or windy it might be!

Date:

Astronomy

Feb. 10, 2013 Rise Set
Actual Time 7:43 AM EST 6:15 PM EST
Civil Twilight 7:15 AM EST 6:43 PM EST
Nautical Twilight 6:43 AM EST 7:15 PM EST
Astronomical Twilight 6:12 AM EST 7:46 PM EST
Moon 7:33 AM EST (2/10) 7:05 PM EST (2/10)
Length of Visible Light 11h 27m
Length of Day
10h 31m
New Moon, 0% of the Moon is Illuminated
Feb 10
New Moon
Feb 17
First Quarter
Feb 25
Full
Mar 4
Last Quarter
Mar 11
New

Hourly Weather History & Observations

Time (EST) Temp. Windchill Dew Point Humidity Pressure Visibility Wind Dir Wind Speed Gust Speed Precip Events Conditions
12:15 AM 33.1 °F 26.1 °F 19.8 °F 58% 30.15 in 10.0 mi SE 8.1 mph - N/A   Clear
12:35 AM 33.3 °F 26.4 °F 20.1 °F 59% 30.15 in 10.0 mi SE 8.1 mph - N/A   Clear
12:55 AM 33.3 °F 27.1 °F 20.3 °F 59% 30.14 in 10.0 mi SE 6.9 mph - N/A   Clear
1:15 AM 33.4 °F 27.3 °F 20.5 °F 59% 30.14 in 10.0 mi SE 6.9 mph - N/A   Clear
1:35 AM 33.8 °F 27.7 °F 20.8 °F 59% 30.13 in 10.0 mi SE 6.9 mph - N/A   Clear
1:55 AM 34.0 °F 26.6 °F 21.2 °F 60% 30.12 in 10.0 mi SE 9.2 mph - N/A   Clear
2:15 AM 34.3 °F 27.0 °F 21.2 °F 59% 30.12 in 10.0 mi SSE 9.2 mph - N/A   Clear
2:35 AM 34.9 °F 27.7 °F 21.0 °F 57% 30.13 in 10.0 mi SSE 9.2 mph - N/A   Clear
2:55 AM 35.1 °F 27.9 °F 21.0 °F 57% 30.13 in 10.0 mi SSE 9.2 mph - N/A   Scattered Clouds
3:35 AM 35.1 °F 28.6 °F 21.4 °F 57% 30.14 in 10.0 mi South 8.1 mph - N/A   Overcast
3:55 AM 35.1 °F 28.6 °F 21.9 °F 59% 30.12 in 10.0 mi SSE 8.1 mph - N/A   Overcast
4:15 AM 35.2 °F 29.5 °F 22.3 °F 59% 30.12 in 10.0 mi SSE 6.9 mph - N/A Rain Light Rain
4:35 AM 34.3 °F 31.4 °F 24.1 °F 66% 30.10 in 10.0 mi SSE 3.5 mph - N/A Rain Rain
4:55 AM 33.8 °F 29.6 °F 25.7 °F 72% 30.11 in 7.0 mi SSE 4.6 mph - N/A   Drizzle
5:15 AM 33.8 °F 29.6 °F 25.9 °F 73% 30.09 in 10.0 mi SE 4.6 mph - N/A   Overcast
5:35 AM 33.4 °F 27.3 °F 26.1 °F 74% 30.09 in 10.0 mi SE 6.9 mph - N/A   Overcast
5:55 AM 34.0 °F 28.0 °F 25.2 °F 70% 30.07 in 10.0 mi SE 6.9 mph - N/A   Overcast
6:15 AM 34.0 °F 29.8 °F 25.3 °F 71% 30.09 in 10.0 mi SSE 4.6 mph - N/A   Overcast
6:35 AM 34.2 °F 30.0 °F 24.8 °F 69% 30.08 in 10.0 mi SE 4.6 mph - N/A   Overcast
7:15 AM 33.8 °F 28.6 °F 25.5 °F 72% 30.07 in 10.0 mi ESE 5.8 mph - N/A   Overcast
7:35 AM 34.2 °F 28.2 °F 25.2 °F 70% 30.06 in 10.0 mi SE 6.9 mph - N/A   Overcast
7:55 AM 34.7 °F 28.8 °F 24.6 °F 67% 30.04 in 10.0 mi SE 6.9 mph - N/A   Overcast
8:15 AM 35.2 °F 28.1 °F 24.6 °F 65% 30.05 in 10.0 mi SSE 9.2 mph - N/A   Overcast
8:35 AM 35.8 °F 27.8 °F 24.6 °F 64% 30.04 in 10.0 mi SSE 11.5 mph - N/A   Overcast
8:55 AM 36.5 °F 28.7 °F 24.6 °F 62% 30.04 in 10.0 mi SSE 11.5 mph - N/A   Overcast
9:15 AM 37.4 °F 29.3 °F 25.2 °F 61% 30.04 in 10.0 mi SSE 12.7 mph - N/A   Overcast
9:35 AM 37.8 °F 31.3 °F 26.2 °F 63% 30.05 in 10.0 mi SSE 9.2 mph - N/A   Overcast
9:55 AM 37.4 °F 30.8 °F 27.5 °F 67% 30.03 in 10.0 mi SSE 9.2 mph - N/A   Light Drizzle
10:15 AM 37.8 °F 30.7 °F 28.2 °F 68% 30.03 in 10.0 mi SSE 10.4 mph - N/A   Overcast
10:35 AM 39.2 °F 31.2 °F 29.1 °F 67% 29.99 in 10.0 mi SSE 13.8 mph 18.4 mph N/A   Overcast
10:55 AM 40.8 °F 34.1 °F 30.4 °F 66% 29.97 in 10.0 mi SSE 11.5 mph 19.6 mph N/A   Mostly Cloudy
11:15 AM 43.0 °F 36.4 °F 31.5 °F 64% 29.96 in 10.0 mi SSE 12.7 mph 18.4 mph N/A   Mostly Cloudy
11:35 AM 44.2 °F 38.4 °F 32.0 °F 62% 29.95 in 10.0 mi SSE 11.5 mph 20.7 mph N/A   Mostly Cloudy
11:55 AM 45.7 °F 39.5 °F 32.2 °F 59% 29.94 in 10.0 mi SSE 13.8 mph 24.2 mph N/A   Scattered Clouds
12:15 PM 46.8 °F - 32.9 °F 59% 29.92 in 10.0 mi SSE 16.1 mph 24.2 mph N/A   Mostly Cloudy
12:35 PM 47.3 °F - 32.7 °F 57% 29.90 in 10.0 mi South 18.4 mph 28.8 mph N/A   Scattered Clouds
12:55 PM 47.3 °F - 32.9 °F 57% 29.89 in 10.0 mi South 12.7 mph 24.2 mph N/A   Clear
1:15 PM 46.8 °F - 33.3 °F 59% 29.89 in 10.0 mi South 13.8 mph 19.6 mph N/A Rain Light Rain
1:35 PM 46.9 °F - 33.8 °F 60% 29.88 in 10.0 mi SSE 9.2 mph - N/A   Overcast
1:55 PM 46.6 °F - 34.9 °F 64% 29.88 in 10.0 mi South 12.7 mph 18.4 mph N/A Rain Light Rain
2:15 PM 46.2 °F 39.8 °F 36.0 °F 67% 29.86 in 10.0 mi South 15.0 mph 20.7 mph N/A   Overcast
2:35 PM 46.4 °F 40.4 °F 36.0 °F 67% 29.86 in 10.0 mi South 13.8 mph - 0.01 in Rain Light Rain
2:55 PM 45.9 °F 40.4 °F 36.7 °F 70% 29.84 in 10.0 mi South 11.5 mph - 0.01 in Rain Light Rain
3:15 PM 45.0 °F 38.9 °F 37.8 °F 76% 29.81 in 7.0 mi SSE 12.7 mph - 0.02 in Rain Rain
3:35 PM 44.8 °F 37.7 °F 38.3 °F 78% 29.78 in 10.0 mi SSE 16.1 mph 20.7 mph 0.05 in Rain Light Rain
3:55 PM 45.0 °F 37.9 °F 38.5 °F 78% 29.77 in 10.0 mi SSE 16.1 mph - 0.05 in   Mostly Cloudy
4:15 PM 45.7 °F 38.6 °F 38.3 °F 75% 29.78 in 10.0 mi SSE 17.3 mph 26.5 mph N/A   Light Drizzle
4:35 PM 45.5 °F 38.6 °F 39.2 °F 79% 29.76 in 10.0 mi SSE 16.1 mph 23.0 mph N/A   Light Drizzle
4:55 PM 46.4 °F 39.8 °F 39.2 °F 76% 29.74 in 10.0 mi SSE 16.1 mph 24.2 mph N/A   Overcast
5:15 PM 46.9 °F - 39.6 °F 76% 29.72 in 10.0 mi SSE 23.0 mph 28.8 mph N/A   Mostly Cloudy
5:35 PM 47.1 °F - 40.1 °F 77% 29.71 in 10.0 mi SSE 18.4 mph 26.5 mph N/A   Scattered Clouds
5:55 PM 47.8 °F - 41.0 °F 77% 29.71 in 10.0 mi South 20.7 mph 31.1 mph N/A   Mostly Cloudy
6:15 PM 48.4 °F - 41.5 °F 77% 29.71 in 10.0 mi South 26.5 mph 31.1 mph N/A   Overcast
6:35 PM 48.7 °F - 41.9 °F 77% 29.72 in 10.0 mi South 23.0 mph 29.9 mph N/A   Overcast
6:55 PM 49.1 °F - 42.3 °F 77% 29.71 in 10.0 mi South 18.4 mph 28.8 mph N/A   Overcast
7:15 PM 49.3 °F - 42.8 °F 78% 29.72 in 10.0 mi South 17.3 mph 28.8 mph N/A   Overcast
7:35 PM 49.5 °F - 43.2 °F 79% 29.72 in 10.0 mi South 15.0 mph 21.9 mph N/A   Overcast
7:55 PM 49.5 °F - 43.7 °F 81% 29.71 in 7.0 mi South 18.4 mph 27.6 mph N/A Rain Rain
8:15 PM 49.5 °F - 44.6 °F 83% 29.72 in 10.0 mi South 18.4 mph 25.3 mph N/A   Drizzle
8:35 PM 49.5 °F - 45.0 °F 84% 29.71 in 10.0 mi South 19.6 mph 25.3 mph N/A   Light Drizzle
8:55 PM 49.3 °F - 45.1 °F 86% 29.72 in 5.0 mi South 17.3 mph - N/A Rain Light Rain
9:15 PM 49.5 °F - 45.5 °F 86% 29.71 in 7.0 mi South 16.1 mph 23.0 mph N/A   Overcast
9:35 PM 49.5 °F - 45.5 °F 86% 29.72 in 10.0 mi South 16.1 mph 20.7 mph N/A   Overcast
9:55 PM 49.6 °F - 45.5 °F 86% 29.71 in 10.0 mi South 15.0 mph 26.5 mph N/A   Overcast
10:15 PM 50.0 °F - 45.7 °F 85% 29.71 in 10.0 mi South 15.0 mph 18.4 mph N/A   Overcast
10:35 PM 50.0 °F - 45.7 °F 85% 29.70 in 10.0 mi South 12.7 mph 19.6 mph N/A   Overcast
10:55 PM 50.2 °F - 45.9 °F 85% 29.70 in 10.0 mi South 16.1 mph 21.9 mph N/A   Overcast
11:15 PM 50.2 °F - 45.7 °F 85% 29.70 in 10.0 mi South 15.0 mph - N/A   Overcast
11:35 PM 50.2 °F - 45.7 °F 85% 29.69 in 10.0 mi South 13.8 mph - N/A   Overcast
11:55 PM 50.2 °F - 45.7 °F 85% 29.69 in 10.0 mi South 15.0 mph 19.6 mph N/A   Overcast